[[{"header":{"parameterUnit":"m.s-1","parameterCategory":1,"la1":30.2991,"la2":30.254,"lo1":-89.0895,"lo2":-89.0444,"dy":0.0017,"dx":0.0017,"nx":28,"ny":28,"refTime":"2024-08-28T03:00:00:Z","depth":0,"parameterNumber":2,"parameterNumberName":"U-component_of_WINDS"},"data":[0,0,0,0,0,0,0,0,0,0,0,0,0,0,0,0,0,0,0,0,0,0,0,0,0,0,0,0,0,0,0,0,0,0,0,0,0,0,0,0,0,0,0,0,0,0,0,0,0,0,0,0,0,0,0,0,0,0,-1.6991,-1.6992,0,-1.7118,-1.712,-1.7121,-1.7144,-1.7143,-1.7142,-1.7141,-1.7273,-1.7277,-1.7282,0,0,0,0,0,0,0,0,0,0,0,0,0,-1.6769,-1.6773,-1.6991,-1.6992,-1.6994,-1.7118,-1.712,-1.7121,-1.7144,-1.7143,-1.7141,-1.714,-1.7271,-1.7277,-1.7282,0,0,0,0,0,0,0,0,0,0,0,0,0,-1.6878,-1.6775,-1.699,-1.702,-1.7024,-1.7117,-1.712,-1.7122,-1.7144,-1.7143,-1.7141,-1.714,-1.727,-1.7276,-1.7283,-1.7356,0,0,-1.7303,-1.7306,0,0,0,0,0,0,0,0,-1.6872,-1.6886,-1.7014,-1.7018,-1.7023,-1.7113,-1.709,-1.72,-1.7145,-1.7099,-1.7141,-1.7139,-1.7221,-1.7232,-1.7259,-1.7362,-1.7368,-1.7304,-1.7308,-1.7311,-1.7313,0,0,0,0,0,0,0,-1.6864,-1.6881,-1.7041,-1.7016,-1.7021,-1.7028,-1.7041,-1.7111,-1.7167,-1.7102,-1.7104,-1.7119,-1.7223,-1.7253,-1.7262,-1.737,-1.7304,-1.731,-1.7314,-1.7317,-1.7542,-1.7544,0,0,0,0,0,0,-1.6851,-1.6874,-1.7037,-1.7045,-1.6942,-1.7033,-1.7048,-1.7086,-1.7167,-1.7177,-1.712,-1.712,-1.7242,-1.7255,-1.7267,-1.7359,-1.7311,-1.7317,-1.7321,-1.754,-1.7542,-1.7544,0,0,0,0,0,0,-1.6846,-1.6865,-1.7032,-1.696,-1.6982,-1.7039,-1.7081,-1.7089,-1.7119,-1.718,-1.719,-1.714,-1.7241,-1.7258,-1.7334,-1.7364,-1.732,-1.7327,-1.7538,-1.754,-1.7543,-1.7544,0,0,0,0,0,0,-1.684,-1.6864,-1.6891,-1.6961,-1.6986,-1.7096,-1.7082,-1.7093,-1.713,-1.713,-1.7201,-1.7211,-1.7241,-1.7324,-1.7341,-1.7373,-1.7332,-1.7535,-1.7539,-1.7542,-1.7541,-1.7546,-1.755,0,0,0,0,0,-1.6832,-1.6886,-1.6893,-1.6912,-1.7021,-1.7097,-1.7112,-1.7145,-1.7132,-1.7161,-1.7201,-1.7209,-1.7358,-1.7332,-1.7351,-1.7385,-1.7533,-1.7538,-1.7542,-1.7539,-1.7545,-1.755,0,0,0,0,0,0,-1.6819,-1.6896,-1.6904,-1.6982,-1.7033,-1.7101,-1.7138,-1.715,-1.7206,-1.7204,-1.7243,-1.7258,-1.7333,-1.7367,-1.7336,-1.7461,-1.7445,-1.7453,-1.7436,-1.7443,-1.7447,-1.7437,-1.7337,0,0,0,0,0,-1.6826,-1.688,-1.6945,-1.7008,-1.7033,-1.7081,-1.7116,-1.7136,-1.7191,-1.7213,-1.7258,-1.7311,-1.7371,-1.7408,-1.7466,-1.7546,-1.7563,-1.758,-1.7584,-1.7588,-1.7595,-1.7641,-1.7649,-1.7558,-1.7558,-1.7558,0,0,-1.6839,-1.6888,-1.692,-1.7006,-1.7048,-1.7105,-1.7099,-1.7159,-1.7202,-1.7222,-1.7297,-1.7332,-1.7395,-1.7473,-1.7511,-1.7504,-1.7624,-1.7593,-1.7596,-1.7601,-1.7646,-1.7655,-1.7662,-1.7561,-1.7561,-1.756,0,0,-1.6893,-1.6935,-1.6993,-1.7035,-1.7098,-1.7131,-1.7144,-1.7211,-1.7235,-1.7311,-1.7328,-1.738,-1.7481,-1.7525,-1.756,-1.7632,-1.7642,-1.765,-1.7674,-1.7719,-1.7726,-1.7732,-1.7759,-1.7768,-1.7657,-1.7657,-1.7657,0,-1.6902,-1.6987,-1.7021,-1.708,-1.7118,-1.7139,-1.7199,-1.7238,-1.7318,-1.7344,-1.7336,-1.7463,-1.7506,-1.7596,-1.7614,-1.7642,-1.766,-1.7642,-1.7722,-1.7729,-1.7736,-1.7761,-1.7771,-1.7657,-1.7657,-1.7657,-1.7657,0,-1.6996,-1.7055,-1.7094,-1.717,-1.7212,-1.7271,-1.7315,-1.7354,-1.7372,-1.7405,-1.7483,-1.7536,-1.7605,-1.7628,-1.7646,-1.7721,-1.7715,-1.7714,-1.7698,-1.7744,-1.7769,-1.7779,-1.7658,-1.7658,-1.7658,-1.7657,0,0,-1.7044,-1.7139,-1.7152,-1.7188,-1.726,-1.7307,-1.7368,-1.7435,-1.7468,-1.7523,-1.7575,-1.7661,-1.766,-1.7701,-1.7724,-1.7763,-1.7818,-1.7757,-1.7759,-1.7767,-1.7906,-1.7906,-1.7917,-1.7825,-1.7827,-1.7829,-1.7901,0,-1.7107,-1.7215,-1.7248,-1.7339,-1.7394,-1.7416,-1.7469,-1.752,-1.7553,-1.7606,-1.7643,-1.7703,-1.7697,-1.7722,-1.7762,-1.7803,-1.7846,-1.7798,-1.7875,-1.7878,-1.7859,-1.793,-1.793,-1.7995,-1.791,-1.7912,-1.7913,0,-1.7194,-1.725,-1.7346,-1.7413,-1.7438,-1.7484,-1.755,-1.76,-1.7658,-1.768,-1.7725,-1.7746,-1.7811,-1.7792,-1.7884,-1.785,-1.7884,-1.7909,-1.7912,-1.7921,-1.7898,-1.7941,-1.8017,-1.8027,-1.7929,-1.7928,-1.7926,0,-1.7221,-1.732,-1.7391,-1.742,-1.7499,-1.7532,-1.7567,-1.7624,-1.7663,-1.772,-1.7746,-1.781,-1.7846,-1.7895,-1.7933,-1.7916,-1.8022,-1.8005,-1.8042,-1.8041,-1.8063,-1.8061,-1.8146,-1.8085,-1.8085,-1.8084,-1.8084,0,-1.7287,-1.7346,-1.7404,-1.7448,-1.7514,-1.7552,-1.7617,-1.7653,-1.7704,-1.7755,-1.7778,-1.7827,-1.7873,-1.7928,-1.7958,-1.803,-1.8046,-1.8066,-1.8073,-1.8064,-1.8061,-1.8086,-1.8083,-1.8087,-1.8087,-1.8086,-1.8086,0,-1.7328,-1.7369,-1.7448,-1.7517,-1.7535,-1.7581,-1.7641,-1.7684,-1.7719,-1.7784,-1.7802,-1.7856,-1.7922,-1.7965,-1.8049,-1.8069,-1.8148,-1.8154,-1.8128,-1.8131,-1.8166,-1.8162,-1.827,-1.8286,-1.8213,-1.8214,-1.8214,0,-1.7368,-1.7413,-1.7487,-1.7523,-1.7558,-1.7615,-1.7655,-1.7695,-1.7735,-1.7806,-1.7842,-1.7909,-1.7965,-1.807,-1.8118,-1.8182,-1.819,-1.8224,-1.82,-1.819,-1.8192,-1.8189,-1.8194,-1.8227,-1.8228,-1.8229,-1.8229,0,-1.7435,-1.7453,-1.7509,-1.7573,-1.762,-1.7672,-1.7724,-1.7753,-1.7802,-1.7846,-1.7914,-1.7957,-1.8043,-1.8111,-1.818,-1.8217,-1.8232,-1.8236,-1.8248,-1.8239,-1.8223,-1.8233,-1.8138,-1.8233,-1.8233,-1.8233,-1.8232,-1.8232,-1.7477,-1.7518,-1.7577,-1.7639,-1.7683,-1.7731,-1.7776,-1.7816,-1.7873,-1.7945,-1.7966,-1.8036,-1.8096,-1.819,-1.8229,-1.8285,-1.8281,-1.8299,-1.8303,-1.8307,-1.8308,-1.8213,-1.8298,-1.8298,-1.8298,-1.8298,-1.8298,0,-1.7545,-1.7584,-1.7641,-1.7713,-1.7762,-1.7771,-1.783,-1.7871,-1.7933,-1.7986,-1.8041,-1.8119,-1.8185,-1.8238,-1.8306,-1.8341,-1.835,-1.8358,-1.8356,-1.8364,-1.8307,-1.829,-1.835,-1.835,-1.835,-1.835,-1.835,-1.835,-1.7587,-1.7658,-1.7683,-1.7777,-1.7816,-1.7885,-1.7918,-1.7963,-1.8006,-1.8092,-1.8147,-1.8181,-1.8235,-1.8307,-1.8368,-1.8382,-1.8406,-1.8413,-1.8428,-1.8374,-1.8368,-1.8363,-1.8347,-1.8418,-1.8418,-1.8481,-1.8482,-1.8482]},{"header":{"parameterUnit":"m.s-1","parameterCategory":1,"la1":30.2991,"la2":30.254,"lo1":-89.0895,"lo2":-89.0444,"dy":0.0017,"dx":0.0017,"nx":28,"ny":28,"refTime":"2024-08-28T03:00:00:Z","depth":0,"parameterNumber":3,"parameterNumberName":"V-component_of_WINDS"},"data":[0,0,0,0,0,0,0,0,0,0,0,0,0,0,0,0,0,0,0,0,0,0,0,0,0,0,0,0,0,0,0,0,0,0,0,0,0,0,0,0,0,0,0,0,0,0,0,0,0,0,0,0,0,0,0,0,0,0,0.8933,0.8932,0,0.8921,0.8921,0.8921,0.8903,0.8902,0.8902,0.8902,0.889,0.889,0.889,0,0,0,0,0,0,0,0,0,0,0,0,0,0.8939,0.8939,0.8933,0.8932,0.8932,0.8921,0.8921,0.8921,0.8903,0.8902,0.8902,0.8901,0.889,0.889,0.889,0,0,0,0,0,0,0,0,0,0,0,0,0,0.8933,0.8939,0.8933,0.8922,0.8921,0.8921,0.8921,0.8921,0.8903,0.8902,0.8902,0.8901,0.889,0.889,0.889,0.89,0,0,0.889,0.889,0,0,0,0,0,0,0,0,0.8933,0.8932,0.8924,0.8923,0.8921,0.8913,0.8919,0.8914,0.8903,0.891,0.8902,0.8901,0.8898,0.8897,0.8896,0.8899,0.8899,0.889,0.889,0.889,0.889,0,0,0,0,0,0,0,0.8934,0.8933,0.8928,0.8923,0.8922,0.8918,0.8916,0.8918,0.8907,0.8909,0.8908,0.8906,0.8897,0.8896,0.8896,0.8898,0.889,0.889,0.889,0.889,0.8908,0.8909,0,0,0,0,0,0,0.8936,0.8933,0.8928,0.8928,0.8926,0.8918,0.8916,0.8916,0.8907,0.8905,0.8907,0.8906,0.8896,0.8896,0.8895,0.8905,0.889,0.889,0.889,0.8908,0.8909,0.8909,0,0,0,0,0,0,0.8936,0.8935,0.8929,0.893,0.8929,0.8918,0.8918,0.8916,0.8915,0.8905,0.8903,0.8908,0.8896,0.8895,0.8898,0.8905,0.889,0.889,0.8907,0.8908,0.8909,0.8926,0,0,0,0,0,0,0.8936,0.8935,0.8939,0.893,0.8929,0.8932,0.8919,0.8916,0.8915,0.8913,0.8905,0.8904,0.8895,0.8899,0.8898,0.8904,0.889,0.8907,0.8908,0.8909,0.8925,0.8928,0.893,0,0,0,0,0,0.8936,0.8945,0.8939,0.8939,0.8933,0.8933,0.8932,0.8923,0.8916,0.8919,0.8913,0.8904,0.8904,0.8899,0.8899,0.8905,0.8906,0.8907,0.8909,0.8924,0.8927,0.893,0,0,0,0,0,0,0.8954,0.8943,0.8937,0.8943,0.8939,0.893,0.8934,0.8926,0.8924,0.8922,0.8911,0.8909,0.8914,0.891,0.8904,0.8914,0.8904,0.8905,0.8916,0.8919,0.8921,0.8921,0.889,0,0,0,0,0,0.8959,0.8959,0.895,0.8956,0.8954,0.8944,0.8944,0.8937,0.8932,0.8931,0.8924,0.892,0.8919,0.8919,0.8918,0.8925,0.8923,0.8929,0.8931,0.8933,0.8934,0.8937,0.8939,0.8913,0.8913,0.8913,0,0,0.8968,0.8962,0.8963,0.8959,0.8955,0.8956,0.8943,0.8944,0.8945,0.8931,0.8933,0.8929,0.8923,0.8929,0.8931,0.8925,0.8941,0.8935,0.8936,0.8936,0.8938,0.8941,0.8943,0.8914,0.8914,0.8913,0,0,0.8985,0.8981,0.8985,0.8982,0.8976,0.897,0.8971,0.8963,0.8959,0.8962,0.8951,0.8952,0.8951,0.8947,0.8945,0.8962,0.8953,0.8962,0.8973,0.8976,0.8978,0.898,0.8985,0.8987,0.8963,0.8963,0.8963,0,0.8998,0.8998,0.8989,0.8991,0.8989,0.8977,0.8981,0.8978,0.8972,0.8971,0.8966,0.8964,0.8959,0.8963,0.8967,0.8967,0.8967,0.8962,0.8979,0.898,0.8982,0.8987,0.8989,0.8964,0.8964,0.8964,0.8964,0,0.9013,0.9014,0.9018,0.9013,0.9012,0.9015,0.9005,0.9006,0.8999,0.8993,0.8996,0.899,0.8987,0.8988,0.8982,0.8991,0.8988,0.8981,0.8971,0.8986,0.899,0.8991,0.8965,0.8965,0.8965,0.8964,0,0,0.904,0.903,0.9031,0.9029,0.9022,0.9022,0.9025,0.9022,0.9022,0.9019,0.902,0.902,0.9013,0.9011,0.9004,0.9007,0.902,0.9,0.8999,0.9003,0.9029,0.9033,0.9035,0.9015,0.9015,0.9015,0.9029,0,0.9055,0.9059,0.905,0.9056,0.9056,0.9045,0.9047,0.9043,0.9038,0.9037,0.9032,0.9031,0.9023,0.9021,0.9024,0.9018,0.9024,0.9017,0.9015,0.9015,0.9015,0.9038,0.9042,0.9055,0.903,0.9031,0.9031,0,0.9073,0.907,0.9076,0.9068,0.9068,0.907,0.9067,0.9067,0.9062,0.9058,0.9056,0.9048,0.905,0.9041,0.9043,0.9038,0.9037,0.9034,0.9035,0.9033,0.9023,0.9036,0.9059,0.9061,0.9033,0.9033,0.9033,0,0.909,0.9089,0.9092,0.909,0.9082,0.9083,0.908,0.9075,0.9074,0.9071,0.907,0.9068,0.9066,0.9065,0.9056,0.9051,0.9059,0.905,0.9056,0.9056,0.9057,0.9057,0.9079,0.9058,0.9058,0.9058,0.9058,0,0.9107,0.9111,0.9099,0.9101,0.9105,0.9095,0.9099,0.9095,0.9091,0.9091,0.9082,0.9082,0.9072,0.9072,0.9065,0.9068,0.9067,0.9064,0.9062,0.9064,0.9064,0.9062,0.9061,0.9059,0.9059,0.9058,0.9058,0,0.9127,0.912,0.9122,0.9114,0.9112,0.9115,0.9109,0.911,0.9105,0.9105,0.9105,0.9096,0.9095,0.9087,0.9085,0.908,0.9085,0.9082,0.9086,0.9085,0.909,0.9089,0.9112,0.9114,0.9092,0.9093,0.9093,0,0.9138,0.914,0.9133,0.9132,0.913,0.9129,0.9128,0.9119,0.9118,0.9113,0.9115,0.9113,0.9111,0.911,0.9104,0.9101,0.9097,0.9106,0.9097,0.9099,0.9096,0.9096,0.9096,0.9107,0.9107,0.9107,0.9108,0,0.9157,0.9153,0.9152,0.9149,0.9148,0.9146,0.9143,0.9143,0.9134,0.9133,0.9132,0.913,0.9128,0.9126,0.9122,0.9119,0.9111,0.9111,0.9112,0.9113,0.9115,0.9113,0.909,0.911,0.911,0.9109,0.9109,0.9109,0.9172,0.9173,0.9168,0.9167,0.9164,0.9161,0.9162,0.9157,0.9156,0.9153,0.9148,0.9147,0.9142,0.9137,0.9134,0.9134,0.9129,0.9131,0.9131,0.9132,0.9132,0.9116,0.9133,0.9133,0.9133,0.9133,0.9133,0,0.9189,0.9186,0.9185,0.9181,0.918,0.9174,0.917,0.917,0.9169,0.9166,0.9164,0.9163,0.9161,0.9155,0.9152,0.9153,0.9149,0.9152,0.9151,0.9151,0.9137,0.9136,0.9155,0.9155,0.9155,0.9155,0.9155,0.9155,0.9199,0.92,0.9196,0.9197,0.9193,0.9192,0.9191,0.9188,0.9185,0.9184,0.9183,0.9179,0.9174,0.9171,0.9169,0.9167,0.9166,0.917,0.9167,0.9154,0.9152,0.915,0.9148,0.917,0.917,0.9181,0.9181,0.9181]}]]